Wind_Speed
20 20 19 19 20 19 19 19 18 18 18 18 19 20 20 20 19 20 20 21 21 21 21 20 19 19 19 19 19 21 20 19 19 19 21 22 21 20 21 20 20 20 18 15 13 13 13 11 9 7 6 5 5 5 5 7 7 5 7 8 5 3 3 3 3 2 5 8 8 11 13 15 18 18 18 22 27 30 31 33 34 34 35 37 41
21 20 20 20 20 19 19 18 18 18 18 19 19 19 20 20 20 20 21 22 21 21 21 21 20 19 19 20 20 20 21 20 20 20 21 22 21 21 22 21 21 21 20 17 14 13 13 11 9 6 5 5 4 5 6 6 5 6 8 8 5 3 3 3 3 1 3 7 9 11 14 15 17 18 18 19 24 29 31 32 34 34 34 36 40
21 20 20 20 20 19 19 18 18 18 19 19 19 19 20 20 21 21 22 23 22 22 22 21 21 20 20 20 20 19 20 20 19 20 22 22 21 22 23 22 22 22 21 18 14 13 13 11 9 6 4 5 4 4 4 4 6 7 7 5 3 3 2 2 2 1 3 6 9 11 14 16 16 16 17 19 24 28 29 31 32 33 34 35 38
20 20 20 20 19 19 19 18 18 19 19 19 19 20 21 21 22 22 22 23 22 22 22 21 21 20 21 21 21 20 21 21 19 20 22 22 22 23 23 23 23 23 21 18 14 13 13 11 9 6 5 6 4 3 3 3 6 6 4 3 2 2 1 0 0 2 4 5 7 10 13 16 15 14 15 18 24 28 28 30 32 32 33 35 37
19 18 18 19 18 19 19 18 18 19 19 19 19 20 20 21 21 21 21 21 20 19 19 18 18 19 20 20 20 21 22 22 22 22 22 22 23 24 24 24 24 22 20 17 13 12 11 10 9 7 6 6 4 3 1 3 5 4 2 2 2 2 2 2 3 5 7 7 7 10 13 15 14 15 16 17 20 24 27 29 31 31 32 34 36
17 16 16 17 17 18 18 17 17 17 17 17 17 18 18 18 18 17 16 16 16 15 15 15 15 16 17 17 18 19 20 21 22 22 23 23 24 24 24 24 23 21 19 16 12 10 9 11 10 7 7 7 4 3 1 2 4 4 3 3 3 3 3 4 5 8 11 11 10 11 13 13 13 13 16 17 17 19 22 26 31 32 31 31 33
14 14 14 14 15 15 15 14 14 14 13 13 12 12 12 12 12 12 12 12 13 13 14 14 14 15 15 16 16 17 18 18 19 20 21 22 23 24 23 22 21 19 18 15 12 10 9 11 10 7 7 6 4 4 3 4 6 6 5 4 3 3 5 5 6 8 10 11 10 9 10 12 12 12 13 15 18 20 20 22 26 28 29 30 30
11 10 10 10 11 11 10 9 8 7 7 7 8 9 9 10 11 11 12 12 13 14 15 15 15 15 15 16 16 16 17 17 17 18 19 20 21 21 20 20 19 18 17 15 13 9 10 12 10 7 7 6 5 6 6 6 7 7 7 5 3 4 6 6 5 7 8 8 7 7 8 9 11 11 12 14 17 19 19 19 20 22 25 29 30
7 6 5 5 5 3 2 4 6 7 8 9 10 10 11 11 11 12 12 13 13 13 14 15 15 15 15 15 16 16 16 17 17 18 19 19 19 19 18 18 17 17 16 14 12 9 10 12 9 7 7 7 7 8 6 6 7 8 7 6 5 5 5 5 5 5 6 6 6 7 7 8 8 9 12 13 13 13 15 18 18 18 22 29 30
4 4 4 5 6 8 10 10 10 11 11 11 11 10 10 10 11 12 13 13 13 14 14 14 15 16 16 16 16 16 16 17 18 18 17 17 17 17 16 16 15 15 16 14 11 9 10 10 9 8 7 8 10 9 6 5 6 6 6 6 7 6 5 4 4 4 5 5 5 5 6 7 7 8 11 12 13 13 15 17 16 13 18 23 25
11 12 14 14 14 13 13 12 11 11 11 11 10 10 10 11 12 12 13 13 14 14 15 15 16 16 16 16 16 16 16 17 17 16 15 14 14 14 14 14 13 14 16 13 10 9 10 9 9 9 8 9 10 9 7 6 4 3 3 4 5 6 5 4 3 3 4 5 5 6 6 6 6 9 12 12 15 16 16 16 15 13 16 15 14
20 19 18 16 14 13 13 12 12 12 11 11 11 11 11 12 13 13 14 15 15 15 16 17 17 18 18 17 17 17 17 17 16 14 13 13 12 11 11 11 11 13 14 11 10 10 10 9 10 10 10 11 11 9 7 5 3 2 0 2 3 3 3 3 3 2 3 5 6 6 7 7 7 9 13 14 16 17 16 16 16 16 18 17 13
22 20 17 15 14 13 13 13 14 13 12 12 12 12 13 14 14 15 16 16 15 16 17 19 20 20 21 21 21 21 20 20 17 13 11 11 11 9 9 9 10 12 12 10 11 11 9 10 12 11 10 11 12 10 7 4 3 1 1 2 2 2 3 3 2 2 3 5 6 6 8 9 8 10 14 15 16 16 16 16 16 16 18 19 17
21 19 17 15 15 15 15 15 14 13 13 12 13 14 15 16 16 16 16 17 17 18 19 20 21 22 22 23 23 23 24 23 19 13 9 9 9 9 7 7 9 11 11 10 11 10 9 11 12 11 11 12 12 11 8 5 3 2 1 1 2 3 3 3 2 3 3 4 5 7 10 10 11 13 15 15 17 17 16 16 16 18 19 18 18
21 19 18 17 17 16 15 14 14 14 13 13 14 16 16 17 18 18 18 18 19 20 20 21 22 22 23 22 23 24 24 25 23 16 10 7 7 7 6 5 8 9 10 10 9 7 7 11 12 10 11 13 12 11 9 5 4 3 1 1 4 5 5 4 3 4 4 3 4 8 10 10 11 15 16 16 19 21 20 19 19 19 19 18 18
21 20 19 19 17 15 14 14 15 15 15 15 17 18 18 18 18 18 18 18 19 20 20 21 22 22 22 22 22 23 24 24 25 21 13 7 6 6 5 5 7 8 9 8 7 6 7 10 11 9 11 13 11 10 8 7 6 4 3 4 6 6 5 5 5 6 5 4 5 8 10 10 12 15 17 19 22 24 24 22 19 18 17 16 17
21 20 20 18 16 15 14 15 16 16 16 18 18 19 18 19 19 19 19 20 20 21 21 21 22 22 22 22 22 22 23 24 25 24 18 10 6 5 6 5 6 8 7 6 6 7 7 8 10 10 10 10 10 9 9 8 6 5 5 6 8 8 7 6 6 7 7 6 7 9 10 11 12 14 17 20 22 23 23 19 14 14 14 12 12
21 20 19 18 16 16 15 16 17 17 18 18 18 18 18 19 19 20 20 20 21 21 22 22 22 22 22 22 22 22 22 24 25 25 23 16 7 4 4 6 6 6 5 6 6 7 6 7 9 10 9 8 9 9 9 8 6 5 7 9 10 10 9 7 7 7 7 8 9 9 10 12 12 15 18 20 19 18 18 17 13 13 14 12 11
21 20 19 17 17 16 16 17 17 18 18 18 17 18 18 18 19 20 20 21 21 21 22 23 24 24 22 22 23 24 24 26 26 25 24 20 12 5 2 4 5 4 4 5 6 7 6 7 7 8 8 8 8 8 7 7 6 6 8 10 11 11 10 8 6 7 8 10 11 10 11 13 13 15 17 15 13 13 14 14 14 14 14 12 11
20 19 18 17 17 17 16 17 18 18 18 17 17 18 18 18 20 21 21 21 21 22 23 24 24 24 23 22 24 26 27 28 28 27 25 22 17 8 2 2 3 3 4 5 8 10 9 10 11 10 8 8 7 7 6 6 5 6 9 10 10 11 12 8 5 6 8 11 12 12 12 13 14 16 14 10 9 10 12 12 13 14 13 11 10
20 19 18 17 17 17 17 17 18 18 17 16 17 17 18 19 20 21 22 22 22 22 22 23 24 23 23 22 24 26 27 28 29 29 26 23 19 12 3 1 2 3 3 6 10 13 13 14 15 12 8 7 7 7 6 6 5 6 8 8 7 10 12 9 6 6 8 11 13 13 12 14 14 12 10 8 9 10 10 11 10 11 11 11 11
19 19 18 18 18 17 17 17 17 17 16 16 16 17 18 18 19 20 21 21 21 20 21 22 24 24 23 23 24 26 27 28 29 30 29 25 21 15 6 2 1 1 3 7 11 14 14 15 15 12 9 8 8 7 6 6 6 7 8 8 7 10 11 9 7 8 11 12 13 12 12 13 12 10 9 10 9 9 10 10 7 8 10 11 11
20 19 19 19 18 17 17 16 16 16 15 16 17 17 17 17 18 19 20 20 19 20 21 23 24 24 23 24 24 25 27 29 30 31 31 27 23 18 8 1 3 1 3 6 11 14 15 15 14 11 10 10 9 7 5 6 7 7 8 9 8 9 9 8 9 11 13 14 14 13 13 13 11 10 10 10 9 10 10 9 6 7 11 12 13
20 20 19 18 17 17 16 15 15 15 15 15 16 16 16 17 17 17 18 18 18 18 20 22 23 23 22 22 24 25 27 29 30 30 31 30 26 20 9 1 4 4 2 5 9 14 16 16 14 12 12 11 9 7 6 6 8 9 10 10 8 7 8 9 11 13 14 15 14 13 13 13 12 11 11 11 11 10 9 8 8 10 12 14 16
20 20 19 17 16 15 15 14 14 14 14 15 15 15 16 16 16 16 17 17 17 17 19 20 21 21 21 20 21 23 26 29 31 31 31 31 29 22 10 3 6 5 2 3 8 13 15 15 15 14 13 12 10 10 9 9 10 10 10 9 7 6 8 11 13 13 14 14 13 12 12 11 11 11 12 12 12 11 10 13 16 16 16 17 18
22 20 18 16 15 14 14 14 14 14 14 13 13 13 14 14 15 15 16 16 15 16 17 18 19 20 21 20 19 20 24 29 31 32 32 31 30 24 11 5 7 6 4 4 9 13 14 15 15 14 12 11 11 11 10 9 9 9 8 7 6 6 9 13 13 13 14 14 12 11 10 10 10 12 13 13 13 12 13 17 20 19 18 19 21
21 19 17 15 14 13 14 14 13 13 13 12 12 12 12 13 14 15 15 15 13 13 15 18 18 18 19 19 19 19 21 25 30 33 33 32 31 24 11 6 8 6 6 7 9 12 14 15 15 12 11 11 10 10 9 9 8 8 7 5 5 6 9 11 11 11 13 14 13 12 11 12 13 15 15 15 15 15 15 18 20 21 20 22 24
19 17 16 15 14 13 13 13 12 12 12 12 12 12 13 14 14 14 14 14 11 10 13 17 17 17 17 16 18 19 19 21 27 31 30 29 29 23 9 7 8 7 8 10 10 12 14 15 14 12 11 11 10 10 9 8 7 8 7 5 5 8 9 9 10 11 12 14 14 14 15 15 16 17 17 17 17 18 17 18 20 20 20 23 23
18 17 15 15 14 13 13 12 11 12 12 12 12 12 12 14 14 13 13 12 9 8 12 15 17 19 18 16 16 18 19 21 24 26 25 25 24 16 4 9 9 8 9 10 11 13 15 15 14 12 12 11 10 9 8 7 7 8 7 5 6 8 9 9 12 15 15 16 17 17 17 16 16 17 18 17 17 18 18 19 20 19 18 21 21
17 16 15 15 14 13 12 12 11 12 12 13 13 12 12 13 13 12 11 10 9 9 11 14 16 18 18 17 16 16 19 21 22 22 22 22 17 7 5 10 10 9 9 9 10 13 15 15 14 13 12 11 9 8 7 6 7 9 8 6 7 9 9 9 12 15 16 17 18 18 18 17 17 17 17 17 17 17 18 19 20 17 16 20 21
17 16 15 15 14 12 12 11 12 12 13 13 14 16 16 16 15 14 11 9 9 10 11 13 15 16 16 16 17 18 20 20 19 19 19 17 11 5 9 11 9 9 9 9 11 14 15 15 14 12 12 10 8 7 6 6 8 10 9 8 7 9 10 11 12 14 15 16 19 19 18 18 17 16 17 17 17 17 18 19 18 15 15 19 21
17 16 15 15 13 12 12 12 12 12 12 13 15 17 19 20 20 18 15 12 10 11 12 14 16 16 15 15 17 20 21 19 17 17 16 13 8 7 10 10 9 8 8 9 11 14 15 15 14 12 11 9 8 7 7 7 9 10 10 10 10 11 12 12 13 14 15 17 19 20 18 18 18 17 18 18 18 17 18 17 15 15 16 18 20
16 16 15 14 13 12 12 13 12 12 12 13 15 17 18 18 19 20 19 17 15 14 15 16 16 16 16 16 18 20 20 17 15 15 14 11 7 8 11 12 9 8 8 10 13 14 13 13 14 12 10 8 8 8 7 7 9 11 11 11 11 12 12 12 13 14 15 16 19 19 19 19 18 18 18 18 18 18 17 15 14 15 16 18 19
16 15 14 13 13 13 13 13 12 11 11 12 14 16 17 17 17 18 18 18 17 17 18 18 17 16 16 17 19 20 17 15 14 14 13 11 8 8 12 13 10 8 7 10 14 14 12 12 12 11 9 8 7 7 8 9 10 11 11 11 12 12 12 12 14 15 16 16 18 19 19 20 20 19 19 17 16 18 18 16 15 15 16 17 17
16 15 14 13 13 14 13 12 11 11 11 12 13 15 16 17 17 17 16 15 15 16 17 17 17 17 18 18 19 19 16 13 13 13 11 10 8 8 11 13 11 8 7 10 13 13 11 11 10 9 8 8 7 7 8 11 12 12 12 13 13 12 12 12 13 15 16 17 17 17 18 19 20 20 20 17 15 17 18 16 15 15 17 17 17
16 15 14 14 14 14 13 11 11 11 11 11 13 14 15 16 17 16 16 14 13 13 15 16 16 16 17 18 19 18 15 12 12 12 11 9 7 6 10 11 10 7 8 11 12 11 10 9 8 8 8 7 7 8 10 13 14 13 14 13 13 12 12 11 12 14 16 17 17 17 17 18 18 18 18 17 17 18 19 17 15 16 18 18 18
15 15 14 14 14 13 12 10 10 10 11 11 12 14 15 16 16 15 15 15 14 13 14 15 15 15 16 18 19 19 15 11 10 11 10 8 8 7 8 9 8 7 7 9 10 10 9 8 7 8 9 8 8 10 13 13 14 14 14 13 12 11 11 11 12 13 15 17 17 17 17 18 18 17 18 19 19 19 19 18 17 18 21 21 21
14 14 14 13 13 12 11 10 10 10 11 12 13 14 15 15 15 14 14 15 14 13 13 14 14 13 15 17 18 19 17 12 10 11 11 10 9 9 7 6 7 6 6 7 8 8 7 6 6 9 10 9 10 12 13 12 12 13 14 14 12 11 11 11 11 12 13 15 17 18 17 17 18 18 19 21 22 21 20 20 21 21 21 22 22
13 13 13 12 12 11 10 10 10 11 12 13 13 14 15 14 13 13 14 14 13 13 14 14 13 13 15 17 17 17 17 15 13 13 13 12 10 9 7 5 5 5 6 6 7 7 7 6 7 10 10 10 11 13 13 11 12 14 15 15 14 12 11 11 11 11 12 13 15 17 18 18 18 19 20 22 24 23 22 22 22 22 21 21 22
12 11 11 11 10 10 10 10 11 12 12 13 13 13 13 12 12 13 13 13 12 13 14 14 13 14 16 16 15 14 13 13 12 12 12 12 10 7 6 5 4 5 6 5 6 7 7 6 8 11 11 11 13 13 12 11 13 16 18 17 14 12 11 11 10 10 11 11 13 16 18 19 19 20 21 23 24 24 23 22 22 23 23 23 23
11 10 10 9 9 10 11 12 13 13 12 12 12 12 11 11 11 13 13 13 13 14 15 15 15 16 16 14 12 11 10 9 9 9 9 10 10 7 5 4 4 7 7 6 6 7 8 8 11 13 13 13 12 12 11 11 12 15 18 17 15 13 12 11 10 10 10 11 12 14 17 19 19 20 22 23 24 25 25 24 23 23 24 24 24
10 9 8 8 8 9 12 14 14 13 12 11 12 11 10 10 12 13 13 13 14 15 16 16 17 17 15 13 12 11 8 7 7 7 8 8 8 7 4 2 5 8 9 8 7 7 8 11 14 14 12 11 11 10 9 9 10 12 15 17 15 14 12 11 9 9 10 11 11 13 16 19 20 21 23 24 25 25 25 23 22 23 24 25 25
9 8 7 7 8 9 11 13 13 14 12 11 11 10 10 11 12 13 13 14 15 16 17 18 18 17 15 13 12 10 8 7 7 7 8 7 7 6 4 3 6 9 11 10 8 7 10 14 16 14 10 9 9 9 8 7 8 9 12 15 15 14 13 11 9 9 10 11 12 13 16 19 21 22 23 25 25 25 24 23 23 24 25 24 24
7 7 6 7 8 8 9 9 11 12 12 10 10 10 10 11 12 13 14 15 16 17 18 18 17 17 16 14 13 12 11 10 8 7 7 6 6 5 4 5 7 9 11 11 9 8 10 14 16 14 10 8 8 9 9 7 6 6 8 13 15 13 12 11 10 9 9 10 11 14 17 20 22 23 24 25 26 25 25 24 24 25 25 22 19
7 7 7 8 8 8 7 7 8 11 11 10 10 10 10 11 11 12 14 16 18 19 19 18 17 16 16 16 15 14 12 10 8 8 7 5 4 4 6 8 9 9 11 11 9 9 12 14 14 13 10 9 9 9 9 7 5 5 5 11 14 12 10 10 10 8 8 8 11 15 19 22 23 24 25 26 26 25 25 24 24 25 25 23 20
8 8 8 8 8 8 7 7 8 10 10 9 9 9 10 11 12 12 14 17 19 19 19 19 18 17 16 16 14 13 11 10 9 8 7 5 3 5 9 11 11 11 11 10 9 10 13 14 12 11 10 10 9 9 8 7 5 4 5 11 13 10 8 9 10 9 7 8 11 15 20 23 24 25 26 26 25 25 25 25 25 24 24 23 22
10 10 9 9 8 8 7 7 9 11 11 9 8 8 9 11 12 13 15 18 19 19 19 19 19 18 17 15 14 12 11 11 10 9 7 5 5 8 10 12 12 12 11 10 11 14 15 14 12 10 9 8 9 9 8 6 5 5 8 12 14 10 8 8 10 10 8 8 10 14 18 22 25 26 26 26 26 25 25 25 25 24 23 22 23
10 10 9 8 8 7 7 8 11 12 11 9 8 8 9 10 12 14 15 17 19 19 18 18 18 18 17 15 14 14 14 13 11 10 9 7 7 9 12 14 14 13 11 12 15 16 15 13 11 9 7 6 7 8 8 6 4 5 9 13 14 10 8 8 10 11 10 8 9 11 15 20 24 25 25 25 25 25 25 25 24 24 23 22 23
10 9 8 7 7 6 7 9 11 12 11 8 7 7 8 10 12 13 14 16 17 17 17 17 17 17 16 15 15 16 16 15 14 12 10 8 8 10 13 14 13 12 13 15 17 15 12 10 8 7 6 5 5 6 6 5 4 6 9 13 13 10 8 9 10 11 10 9 9 10 13 17 21 24 24 24 23 23 24 24 24 24 24 24 24
10 8 7 6 6 6 6 8 10 11 11 8 7 6 7 8 11 13 14 14 14 14 15 15 16 16 15 15 16 16 17 16 14 13 11 9 9 11 13 12 11 12 14 16 15 13 10 8 7 5 4 3 4 5 6 5 4 6 10 13 13 11 10 10 10 11 10 9 8 9 11 15 20 23 24 23 22 22 23 24 24 24 24 25 25
8 6 6 6 5 5 5 6 9 11 11 10 7 6 6 8 10 12 12 13 12 12 13 13 14 14 14 14 15 16 16 15 14 13 12 10 10 12 11 10 10 12 14 14 13 11 10 8 6 5 3 2 3 6 6 5 5 7 10 13 15 14 11 11 11 11 10 9 8 8 10 13 18 22 23 22 22 22 22 23 24 24 24 25 26
Wind_Direction
253 258 262 265 269 272 275 277 280 283 286 287 287 290 294 297 301 305 306 305 306 306 305 305 304 301 299 296 295 292 288 288 285 278 270 268 269 272 274 272 267 264 261 260 256 250 251 251 246 253 269 275 274 278 301 324 321 317 324 322 331 330 285 251 237 281 28 37 33 32 33 34 34 33 34 39 42 42 42 42 41 39 37 39 42
255 260 264 267 271 276 279 280 282 284 286 287 288 291 295 300 304 306 307 309 310 308 307 308 306 303 301 300 299 296 291 289 288 282 274 271 271 272 271 269 267 261 254 253 253 248 247 244 237 240 260 255 258 290 315 331 326 321 327 324 324 326 299 270 249 240 41 33 33 38 41 43 40 37 38 39 41 44 44 44 43 42 40 41 44
257 262 265 269 273 278 280 281 283 283 286 288 291 295 299 303 305 306 309 312 312 312 311 310 308 306 304 303 303 300 297 293 292 288 281 274 272 274 272 268 266 260 252 252 254 250 243 234 225 228 246 241 250 301 319 331 326 322 326 327 320 315 300 276 266 174 82 45 36 41 47 49 45 44 47 47 48 49 47 46 45 44 43 44 45
257 261 264 270 275 278 280 282 283 284 288 292 295 300 303 304 306 309 312 315 316 317 316 313 310 306 303 302 302 302 302 299 298 296 289 281 275 275 273 269 265 259 252 250 251 250 242 224 215 226 237 231 245 297 316 329 328 330 340 339 332 331 351 347 309 115 102 68 47 49 53 52 49 51 55 54 53 52 50 49 49 46 44 46 47
258 261 266 271 275 279 282 284 286 289 293 298 301 305 308 310 312 315 317 319 320 321 320 318 314 308 305 305 303 303 304 302 300 297 294 289 282 277 275 271 265 255 249 249 248 247 237 217 214 229 227 221 237 272 295 334 336 350 21 8 11 57 82 75 87 105 104 92 70 61 59 57 53 54 57 57 56 55 53 52 51 48 45 46 47
261 264 268 273 278 282 286 289 292 296 300 305 309 313 317 318 319 322 324 325 328 330 331 329 324 318 315 314 312 310 309 307 303 300 297 294 288 282 278 274 267 253 246 247 241 234 225 213 216 225 218 218 230 229 202 10 8 34 56 45 52 82 91 89 96 102 101 96 82 66 60 58 55 52 54 57 57 54 52 52 52 49 46 46 46
263 268 272 278 283 286 291 294 298 305 311 318 325 330 334 337 340 345 349 351 353 353 351 347 342 338 333 330 326 323 320 316 312 309 305 300 294 288 282 278 269 254 244 239 229 226 226 217 217 221 212 211 213 187 133 62 50 60 62 57 68 86 89 95 104 105 102 96 82 67 62 62 60 56 57 62 63 58 53 52 51 48 47 47 45
265 272 276 281 286 290 297 305 316 336 352 6 16 18 19 22 22 20 18 14 10 4 359 354 349 345 344 342 340 335 331 328 324 321 316 310 304 296 289 282 269 252 240 230 224 231 231 221 220 215 201 197 189 163 126 84 67 65 64 63 72 81 88 100 106 101 100 96 79 66 66 64 59 60 60 60 60 56 53 56 55 50 51 50 46
255 260 266 275 287 304 0 47 59 60 60 58 55 50 45 40 33 26 21 15 9 1 357 353 350 348 348 349 350 346 341 335 332 329 324 317 311 304 295 285 268 249 237 223 221 236 231 218 216 204 188 182 174 161 139 105 83 72 68 65 60 64 81 98 101 95 99 99 82 64 62 58 52 57 56 53 57 60 60 65 63 57 60 57 48
192 168 135 112 105 100 93 89 84 76 70 65 58 51 44 36 28 23 18 12 6 1 357 354 351 350 350 351 352 351 349 346 343 338 330 321 314 306 297 287 269 248 232 220 223 233 216 202 208 207 187 172 170 166 152 134 107 84 74 65 54 48 57 72 88 101 110 106 87 74 71 63 55 65 68 67 74 74 67 67 65 58 63 62 52
128 119 112 108 105 100 93 88 82 75 69 63 56 49 41 34 27 20 14 10 7 3 0 360 359 356 355 355 355 353 352 351 346 341 339 334 321 310 298 287 270 247 232 226 223 212 192 193 212 211 184 172 176 172 152 143 131 101 82 63 51 47 47 48 70 112 129 117 102 98 96 88 81 88 92 91 87 79 71 70 68 62 63 63 55
117 112 109 106 100 93 90 88 83 77 70 64 57 48 38 31 25 20 16 13 9 7 8 11 12 10 7 6 6 3 358 352 344 339 346 351 341 322 301 284 269 248 234 222 205 192 183 193 210 205 184 181 188 180 158 154 151 125 21 5 31 51 57 42 42 102 138 132 121 116 115 113 109 107 110 107 95 85 80 75 72 71 72 70 64
114 109 106 103 97 95 95 91 85 78 69 61 52 42 35 32 29 26 22 19 15 15 18 20 20 17 16 16 15 12 6 359 351 345 354 3 357 337 309 284 265 247 231 207 195 195 185 188 204 206 191 190 197 192 180 180 177 171 284 326 14 81 99 61 32 66 131 143 137 133 135 132 126 123 124 118 106 96 90 84 79 77 77 73 68
111 107 103 101 99 98 96 90 83 73 63 54 46 42 41 40 38 33 28 25 24 22 22 21 20 18 17 16 15 14 10 4 359 355 2 12 3 343 320 287 258 239 223 206 203 203 192 191 204 210 198 193 201 201 195 198 193 195 267 331 69 100 99 73 62 90 116 144 140 133 138 140 137 136 133 122 113 107 102 97 92 84 80 78 74
107 105 103 102 99 97 91 84 76 68 61 55 52 50 47 44 40 36 31 28 25 23 20 17 15 14 13 12 12 13 11 7 3 358 360 14 6 343 321 281 253 232 216 213 215 208 200 202 207 211 203 197 201 204 199 195 191 194 213 110 104 102 91 78 79 87 94 117 130 129 131 137 142 140 135 124 116 112 108 103 100 93 85 80 74
106 105 102 99 95 90 85 80 75 70 65 61 57 53 48 42 37 30 25 22 18 16 14 13 11 10 10 8 9 11 10 7 4 359 355 5 11 344 310 267 245 231 218 221 221 198 195 210 215 215 206 200 203 207 198 183 178 183 165 125 119 112 101 90 81 79 86 103 124 128 127 134 143 140 135 128 121 118 113 106 100 96 88 80 74
105 103 99 97 93 88 84 81 78 74 67 62 57 51 45 39 32 26 21 19 17 15 13 13 13 12 11 10 9 9 10 8 5 2 358 359 12 349 306 263 238 231 224 224 215 188 184 210 220 215 207 201 198 191 182 173 170 175 161 137 130 126 116 103 89 81 84 100 120 128 127 132 141 141 136 131 127 125 119 110 105 101 93 85 79
106 104 100 97 93 89 86 82 78 73 66 60 55 50 44 37 32 27 24 22 21 20 18 17 18 18 17 17 15 11 10 10 9 8 4 359 3 4 315 272 243 228 220 216 202 181 183 208 215 212 206 193 180 173 173 172 169 174 167 146 135 132 129 122 106 91 90 106 119 128 134 136 140 142 139 134 133 132 123 116 117 109 98 95 93
108 106 103 99 94 91 87 82 76 69 64 59 54 48 43 38 33 29 27 26 24 23 22 22 22 23 21 21 20 17 13 12 12 12 10 4 359 0 331 283 253 227 214 209 184 164 172 185 185 193 198 187 179 177 174 171 173 181 173 153 140 140 141 136 124 108 109 120 126 134 142 141 141 145 142 137 136 134 126 122 121 110 103 101 96
110 107 103 100 96 92 87 81 74 67 62 58 52 47 41 36 32 29 27 26 24 23 24 21 20 20 18 18 21 21 17 15 15 15 13 9 3 354 329 290 271 242 220 204 178 158 157 157 153 166 193 203 194 181 174 177 179 180 173 158 146 149 149 143 135 122 117 125 134 143 147 145 145 147 143 136 135 135 130 125 116 106 103 97 84
111 108 105 102 99 94 86 79 72 67 61 54 48 45 39 32 29 27 24 22 21 21 22 19 15 14 12 11 16 20 18 15 16 15 14 13 9 359 330 269 283 263 229 201 177 160 155 153 151 158 185 205 192 173 175 185 175 166 169 162 152 156 154 148 142 124 115 127 139 144 145 143 142 142 138 132 133 134 130 123 108 98 96 92 86
112 109 107 104 100 94 86 77 71 65 58 49 44 41 36 30 27 24 21 19 20 21 20 17 12 8 5 5 10 14 14 13 14 14 14 14 13 5 343 260 217 254 226 195 174 162 159 158 156 160 172 180 177 171 177 185 175 169 171 164 157 160 158 156 151 131 123 136 145 144 144 147 145 138 133 131 132 135 131 119 100 94 94 84 81
113 111 109 105 99 92 85 77 70 64 54 46 41 39 34 28 24 22 19 17 19 21 20 15 10 5 359 358 3 7 8 10 11 11 12 13 14 11 359 239 148 127 230 199 173 164 163 162 161 163 166 168 172 170 166 172 170 166 164 159 158 164 166 163 152 137 134 146 151 145 147 157 158 146 138 135 136 140 135 118 100 108 104 87 81
114 112 109 104 98 92 84 76 68 61 52 44 40 36 31 24 21 20 19 17 17 21 21 15 8 3 356 353 358 1 2 3 5 7 9 11 12 14 13 117 133 120 212 211 174 164 165 166 166 166 164 166 168 157 141 139 139 138 145 151 156 167 169 155 141 135 139 150 155 150 152 162 166 159 150 143 142 143 134 120 117 119 109 97 93
114 111 106 101 96 91 82 74 66 59 51 43 38 34 27 20 18 18 18 17 18 23 23 15 7 2 355 351 353 355 356 358 0 2 4 6 8 12 19 95 126 124 156 184 161 160 164 168 169 167 166 167 164 151 137 129 125 124 133 145 152 158 153 143 136 134 137 146 152 154 157 165 169 167 159 150 147 143 128 118 118 117 111 103 97
111 107 102 100 95 87 79 73 66 59 52 45 39 33 22 14 14 16 16 18 21 24 23 14 6 2 356 350 349 351 353 355 357 357 358 359 2 7 20 99 128 126 128 143 156 163 168 168 167 167 167 166 163 155 143 133 127 126 133 145 152 152 147 144 141 138 137 141 147 153 161 167 167 163 158 151 144 137 128 122 116 113 114 109 98
107 103 101 99 93 84 78 74 66 59 52 44 36 28 19 13 15 19 19 19 22 27 22 12 7 5 359 350 346 347 351 354 354 354 353 352 353 359 18 110 136 131 126 138 155 165 167 165 163 164 164 159 156 154 150 144 137 134 138 145 147 150 152 151 149 147 144 142 144 146 150 153 153 152 151 148 141 135 135 132 123 116 116 112 100
102 100 98 95 91 86 80 73 64 55 47 38 30 24 19 17 19 23 24 21 20 29 26 16 8 6 3 357 347 343 347 352 353 351 348 345 344 348 14 120 141 138 135 139 146 155 161 161 158 158 158 153 148 147 148 146 143 143 148 149 144 151 161 163 160 158 153 143 138 139 141 141 143 145 145 143 139 137 139 136 126 120 118 113 103
100 98 96 96 95 90 81 70 59 50 40 33 28 23 22 24 23 21 20 19 19 25 25 19 12 5 5 7 1 348 343 346 348 346 342 339 338 341 30 128 137 142 145 145 146 151 158 160 156 153 153 149 146 147 142 132 134 146 157 162 156 158 164 164 157 156 151 142 137 139 141 139 137 138 138 136 134 136 139 135 128 123 118 110 103
101 99 98 98 96 89 78 66 53 43 33 26 22 18 21 29 33 27 16 12 19 24 18 13 10 4 2 5 5 357 348 344 345 345 342 340 342 354 116 130 132 142 151 153 152 154 158 157 154 154 154 149 146 149 143 126 133 150 162 171 170 170 170 163 156 154 151 144 141 144 145 141 135 133 132 131 131 134 136 133 128 124 117 109 104
103 101 99 97 93 84 72 60 46 37 31 26 23 18 16 20 29 35 30 20 20 21 15 8 6 5 3 359 357 357 354 350 349 350 349 351 3 71 122 125 128 140 150 155 157 158 158 153 150 153 155 150 147 152 149 139 143 157 168 171 172 177 176 166 160 159 154 147 146 150 149 144 141 139 136 134 133 134 132 130 126 119 112 110 109
105 103 100 97 89 75 62 51 40 35 33 31 28 23 16 11 11 17 26 32 29 21 15 10 5 6 8 4 358 357 356 356 356 357 0 10 37 99 117 114 118 132 144 153 156 157 157 154 152 155 158 156 159 160 154 151 157 165 171 170 169 177 177 167 162 164 160 152 152 153 149 146 148 148 144 140 137 132 127 125 122 116 113 111 109
105 105 102 95 82 67 55 45 39 37 37 32 26 21 17 9 2 0 7 16 21 20 19 16 9 7 11 11 4 0 359 1 4 4 9 26 57 106 113 108 114 131 146 155 154 152 154 155 155 158 164 167 167 159 154 160 167 170 175 173 170 173 172 163 163 168 165 159 157 154 150 150 153 149 143 142 140 133 127 123 120 118 117 113 110
104 102 96 85 73 63 53 46 42 41 37 29 21 16 13 10 5 0 360 4 7 8 13 15 11 10 14 13 8 5 5 10 14 13 17 34 62 103 113 113 122 137 148 154 151 147 150 155 156 160 167 164 156 152 158 166 168 170 173 171 166 165 163 161 164 169 167 162 159 155 152 153 155 152 146 143 139 135 131 129 126 122 119 116 114
102 97 87 76 69 62 54 48 46 41 32 23 16 12 10 10 9 8 6 6 2 358 360 5 7 9 14 14 9 8 12 20 25 24 24 32 56 102 119 119 124 137 147 151 150 148 151 154 155 157 158 150 143 150 162 164 163 164 164 160 156 156 158 161 165 168 168 165 163 160 156 154 154 153 149 145 140 136 134 133 130 125 121 120 118
99 91 82 73 67 62 55 50 46 37 28 21 14 10 11 12 11 10 9 8 1 353 353 357 359 5 14 14 8 8 18 29 34 34 33 32 50 107 128 123 120 131 145 148 148 147 146 148 151 147 137 132 139 154 160 159 159 158 156 152 148 149 153 160 167 171 172 170 167 163 159 155 154 152 148 142 139 139 137 136 132 127 124 123 121
91 86 82 74 66 60 56 52 46 36 27 21 13 11 13 14 12 10 6 359 353 349 350 353 355 360 9 11 7 9 19 33 42 45 46 49 62 92 120 126 124 130 143 148 147 143 141 144 145 135 123 121 133 146 150 154 159 161 157 152 147 144 147 156 164 170 173 171 168 165 161 158 159 160 154 145 140 138 138 135 130 125 126 127 125
85 83 81 74 67 62 57 51 45 34 24 19 15 13 14 12 8 6 1 353 349 349 350 353 355 356 0 6 7 8 13 26 41 44 44 49 58 66 85 115 128 129 135 144 149 150 148 142 131 126 123 120 123 128 132 141 153 161 159 152 146 141 144 152 158 162 166 167 167 168 168 166 167 169 163 152 144 140 138 135 130 125 125 127 126
87 84 81 75 69 65 57 49 41 30 22 19 17 14 12 9 3 359 354 349 350 351 350 351 356 357 360 6 9 7 9 17 25 25 28 36 46 52 62 91 119 129 130 137 148 157 158 143 128 128 128 118 110 111 114 122 139 149 149 146 144 145 146 150 154 156 158 161 165 170 173 174 173 172 166 156 148 143 138 134 133 132 130 129 128
90 89 85 78 71 64 55 47 40 31 24 21 18 13 10 7 359 353 350 350 351 352 353 354 357 0 4 8 10 7 6 8 10 11 17 28 37 43 52 67 101 131 139 140 146 153 153 144 134 132 126 112 104 103 103 109 128 142 144 143 144 147 147 148 150 151 154 160 165 171 175 177 174 169 163 155 149 146 141 137 137 138 137 135 133
93 93 89 80 71 63 55 48 41 35 29 24 18 12 9 5 358 352 352 355 355 355 358 1 1 6 11 13 10 5 359 359 1 6 13 21 28 36 44 60 102 131 144 153 155 152 151 149 142 134 123 109 103 103 100 100 117 139 148 149 148 147 148 149 150 152 155 160 165 171 176 176 173 168 162 155 151 148 146 143 142 142 140 140 139
94 94 90 83 74 65 57 50 43 36 31 25 18 14 11 6 2 358 358 360 360 0 3 5 7 13 17 12 1 355 353 354 1 9 13 19 26 32 40 79 119 131 144 156 156 146 148 153 150 142 127 111 106 108 107 100 105 129 150 158 156 153 153 154 154 157 160 161 163 170 174 175 172 168 163 157 153 150 147 144 144 144 143 144 143
92 91 88 87 82 70 59 50 40 34 31 26 20 20 18 12 9 8 6 5 4 6 7 8 10 14 16 10 3 5 9 9 11 14 14 16 23 33 55 123 136 136 146 154 148 136 145 154 154 147 134 119 114 114 115 108 98 113 145 162 163 158 158 161 162 166 167 161 160 166 172 172 171 167 162 158 155 151 148 147 148 148 148 146 144
87 88 91 93 86 73 60 48 35 29 29 28 27 28 26 19 15 14 12 10 11 13 14 13 13 14 14 12 15 19 17 11 8 9 8 9 19 41 88 134 138 138 148 150 137 128 144 154 155 150 141 131 126 120 117 115 101 98 139 164 164 160 163 167 165 168 171 163 159 166 171 171 170 168 163 160 158 155 153 153 154 152 149 147 143
88 92 95 95 87 72 60 47 30 22 24 29 34 34 30 25 20 17 15 15 18 20 19 17 15 15 12 12 15 16 12 7 3 1 360 2 18 62 114 130 130 138 151 150 132 126 143 153 155 152 144 139 138 130 120 118 106 90 136 164 162 158 167 170 159 158 170 167 162 168 172 171 170 169 166 163 163 162 160 161 161 156 151 149 148
95 97 93 89 82 70 58 44 26 20 24 34 37 33 28 26 24 22 21 23 26 26 23 19 17 15 12 11 13 13 11 10 8 5 3 9 46 105 125 128 128 137 149 146 127 127 141 147 146 141 134 137 145 140 127 121 111 101 142 165 163 161 173 173 156 152 166 170 163 167 172 172 170 169 168 167 167 166 165 165 164 161 156 153 150
98 97 90 84 77 67 56 42 28 24 30 40 40 32 26 25 27 28 30 32 34 31 25 21 20 17 12 12 17 22 24 25 25 26 31 47 90 119 128 129 129 136 140 134 128 133 137 135 130 125 122 133 148 147 136 130 118 114 145 164 168 172 183 177 158 151 159 166 162 165 172 173 171 170 170 170 169 168 167 165 165 164 161 156 153
99 94 87 78 71 66 57 44 33 30 32 38 40 33 27 27 32 35 35 36 36 33 28 25 22 18 17 23 34 41 45 45 45 48 58 74 101 122 130 130 130 134 135 132 135 139 137 131 128 128 124 131 146 149 146 144 128 123 150 166 171 175 184 177 160 152 155 162 162 164 171 174 173 173 174 174 173 172 170 168 167 166 164 160 156
99 92 82 70 66 66 61 47 38 34 34 37 40 35 27 29 35 37 36 36 36 33 30 27 23 19 23 36 47 51 53 54 54 56 64 80 105 124 131 128 126 129 133 134 138 143 140 132 130 133 131 136 148 154 160 162 139 131 155 167 167 166 176 178 165 156 157 162 163 165 171 174 174 175 176 177 177 175 173 171 170 168 165 161 159
96 89 78 67 66 71 65 52 43 38 36 36 40 37 28 31 38 38 34 33 33 31 28 26 23 22 28 40 48 51 53 55 56 59 66 82 105 122 128 124 119 122 128 130 134 139 140 130 121 117 121 139 155 161 171 175 149 139 157 164 159 156 169 178 170 162 162 164 165 169 174 175 174 175 176 177 178 178 176 174 173 170 166 163 162
97 88 73 64 69 75 68 54 48 43 37 34 39 41 33 34 42 43 37 32 29 24 20 20 21 24 32 42 48 50 51 53 56 61 69 84 105 117 119 114 113 119 123 123 124 128 132 127 113 95 82 100 157 169 177 177 155 148 158 161 157 157 167 177 174 169 167 167 168 173 178 179 177 176 175 176 177 177 176 174 173 171 169 166 165
Height
754 755 756 757 757 757 758 758 758 759 758 758 757 756 755 755 754 754 753 752 752 751 750 750 749 748 747 746 745 745 744 744 743 743 742 741 742 742 741 741 741 740 741 741 741 741 741 742 743 743 744 743 743 743 743 743 742 741 740 739 738 738 737 737 737 735 735 735 734 733 731 729 728 726 723 721 718 716 713 710 707 704 701 698 694
753 754 755 755 756 756 756 756 756 756 756 755 755 754 754 753 753 753 752 750 750 749 748 748 747 746 745 744 743 743 742 741 741 740 740 739 739 739 738 738 738 738 738 738 739 739 740 740 742 742 743 743 743 743 743 742 742 741 740 739 738 737 737 737 736 735 735 735 734 733 732 730 729 728 725 723 721 718 715 712 710 708 705 702 698
752 753 753 753 754 754 754 754 754 754 754 753 753 753 752 752 752 751 750 749 748 747 746 746 745 744 743 742 741 740 739 739 739 738 737 737 737 736 735 736 735 735 735 736 738 738 738 739 740 741 742 742 742 742 742 742 741 740 739 738 737 736 736 736 735 735 735 735 735 734 733 732 731 730 728 726 723 720 718 716 713 711 709 706 703
750 751 751 752 752 753 752 753 753 752 752 752 752 752 751 751 750 749 748 747 746 745 745 744 743 742 741 740 739 738 737 736 736 736 735 735 734 733 732 732 732 732 733 735 736 737 737 738 739 740 741 741 741 741 741 741 740 739 738 738 737 736 736 735 735 735 735 735 735 735 734 733 733 732 730 728 725 723 721 719 716 715 713 710 707
749 749 750 750 750 751 751 751 751 751 751 751 751 750 750 749 748 748 746 745 744 744 743 742 741 740 739 738 737 736 735 735 734 733 732 731 731 730 729 729 729 730 731 732 734 735 736 737 738 739 739 739 740 740 740 740 739 739 738 738 737 737 736 736 735 736 735 735 736 736 735 734 734 733 731 729 727 726 724 722 720 718 716 714 711
747 748 749 749 749 749 749 750 750 750 750 750 749 749 748 747 747 745 745 744 743 742 741 740 739 738 737 736 735 734 733 733 731 731 730 729 728 728 727 727 727 728 729 731 732 734 734 735 736 737 738 738 739 739 739 740 739 739 739 738 738 737 737 736 736 736 736 736 736 736 735 735 735 734 733 731 729 728 727 725 722 721 720 718 716
746 747 748 748 748 748 749 749 749 749 749 748 748 748 747 746 745 744 744 743 742 741 740 739 738 736 736 735 734 733 732 731 730 729 728 727 727 726 726 726 725 726 727 729 731 732 733 734 735 735 736 737 738 738 739 740 739 739 739 738 738 737 737 737 737 737 737 737 737 736 736 736 736 736 735 733 731 730 729 727 726 725 724 722 720
745 746 747 747 748 748 748 748 748 748 748 747 747 747 746 746 745 744 744 743 742 741 739 738 737 736 735 734 733 732 731 730 729 727 727 726 725 725 724 724 724 725 726 728 729 731 733 734 734 734 735 736 737 738 739 739 739 739 739 738 738 738 737 738 738 738 738 738 737 737 737 738 738 737 736 734 733 732 732 731 730 730 728 726 724
744 745 746 746 747 747 747 747 747 747 748 747 748 747 747 746 745 745 744 742 742 741 739 738 737 736 735 733 732 731 730 729 728 726 726 724 724 723 723 722 723 724 725 727 728 730 732 733 734 734 735 735 736 737 738 738 738 739 739 739 738 738 738 738 738 739 739 739 738 738 738 738 739 738 737 736 736 736 735 734 733 733 731 729 728
743 744 745 746 746 747 747 747 747 748 748 748 748 748 747 746 745 744 744 743 742 741 739 738 737 735 734 733 732 731 729 728 727 725 724 723 722 722 721 721 722 723 724 725 727 728 730 732 733 734 735 735 736 737 737 738 738 739 739 739 739 738 738 738 739 739 740 739 739 739 739 740 740 740 739 739 739 738 737 736 735 736 733 731 731
742 743 744 746 746 747 747 748 748 749 749 749 749 748 747 746 745 745 744 743 742 740 739 738 736 735 733 732 731 730 728 727 725 724 723 722 721 721 720 720 720 721 722 724 725 727 729 731 732 734 735 735 736 736 737 738 738 739 739 739 739 739 739 739 739 740 740 740 740 740 740 741 742 741 741 741 740 739 739 738 738 738 736 734 735
741 743 745 746 747 747 748 748 749 749 750 749 749 748 747 746 745 745 744 743 742 740 739 738 736 735 733 732 731 729 727 726 724 723 721 720 720 719 719 719 719 720 722 723 725 726 728 730 731 733 734 735 736 736 737 737 738 738 739 739 739 739 739 739 739 740 740 740 740 740 740 741 743 743 743 742 742 741 741 741 741 740 739 738 739
742 744 745 747 747 748 749 749 750 750 750 750 749 748 747 747 746 745 744 743 742 741 739 738 737 735 733 732 731 729 727 725 723 722 720 719 719 718 718 718 719 720 721 723 724 725 726 728 730 732 733 734 735 736 736 737 738 738 739 739 739 739 739 739 739 739 740 741 741 740 740 741 743 744 744 744 743 743 743 743 743 743 742 742 742
743 745 746 747 748 749 749 749 750 750 750 750 749 749 748 747 747 746 745 744 743 741 740 739 737 736 734 733 731 729 728 725 723 721 720 718 718 717 717 718 718 719 721 722 723 724 725 726 728 730 731 733 734 735 735 736 737 738 739 739 739 739 740 740 739 740 740 741 741 741 741 742 743 744 745 745 744 744 744 745 746 746 745 745 745
744 746 747 748 749 749 749 750 750 750 750 750 750 749 749 748 747 747 746 745 744 743 741 739 738 736 735 733 732 730 728 726 723 721 719 718 717 717 717 717 718 719 721 722 723 724 726 727 728 729 730 731 733 734 735 736 737 738 739 739 739 740 740 740 740 740 741 741 741 741 742 743 744 745 746 746 746 745 746 746 747 748 748 748 748
745 747 748 748 749 749 750 750 751 751 751 751 750 750 749 749 748 748 747 746 745 743 742 740 738 737 735 733 732 730 728 726 723 721 719 717 716 716 717 717 718 719 721 722 723 724 725 727 728 729 730 731 732 734 735 736 737 738 739 739 740 740 741 741 741 741 742 742 742 743 743 744 746 746 748 748 747 747 747 748 749 750 750 750 750
746 747 748 749 749 750 751 751 751 752 752 751 751 750 750 749 749 748 747 746 744 743 742 740 739 737 735 733 732 730 728 726 724 722 719 717 716 716 717 718 718 719 720 721 722 723 725 727 728 729 730 731 732 733 735 736 736 737 738 739 740 741 742 742 742 742 743 743 744 744 744 746 747 748 749 749 749 749 749 749 751 751 751 752 753
747 747 748 750 750 751 752 752 752 752 752 752 751 751 751 750 749 749 747 746 744 743 742 740 739 737 735 734 732 730 729 727 725 722 720 718 716 716 717 718 718 719 720 721 722 723 725 727 729 730 731 732 733 734 735 736 736 737 738 739 740 741 742 743 743 743 744 744 745 746 746 747 748 750 751 751 751 752 751 751 752 752 753 754 754
748 748 749 750 751 752 753 753 753 753 752 752 752 752 751 750 750 749 747 746 745 743 742 740 739 737 736 734 733 731 729 727 725 723 720 719 717 716 717 718 718 719 720 721 722 723 725 728 729 731 733 733 734 735 736 736 737 737 738 739 740 741 743 744 744 744 745 745 746 748 749 749 750 751 752 753 754 754 753 753 754 753 754 755 756
748 749 750 751 752 753 753 754 754 753 753 753 753 752 751 751 750 748 747 746 745 743 742 740 739 738 736 735 733 732 730 728 726 724 721 720 718 717 717 717 718 719 720 720 722 723 726 728 729 731 733 734 735 735 736 737 737 738 739 740 741 742 743 744 745 745 746 747 748 749 750 750 751 753 754 755 756 756 756 756 756 756 756 757 757
748 749 750 752 753 754 754 754 754 754 754 754 753 753 751 750 749 748 747 745 744 743 742 740 739 738 736 735 734 733 731 729 727 725 722 720 719 718 717 717 718 719 720 720 722 723 725 727 729 730 733 734 735 736 737 737 738 738 739 740 741 742 743 745 745 746 747 748 749 750 751 752 753 754 756 757 757 757 758 759 759 758 758 758 759
749 750 751 753 754 754 754 755 754 755 755 755 754 753 752 751 749 748 747 745 744 743 742 741 739 738 736 735 734 733 732 730 728 725 723 721 719 718 717 717 718 719 720 721 722 724 725 727 729 730 732 734 736 736 737 738 738 739 740 741 742 743 744 745 746 747 748 749 750 751 752 754 755 756 757 758 758 759 760 760 761 760 760 761 760
750 751 752 753 754 754 754 755 755 755 755 755 754 753 752 751 749 748 747 746 744 744 742 741 740 738 736 734 734 733 732 730 728 726 724 722 720 718 717 717 717 719 720 721 722 724 726 727 729 731 732 734 736 737 738 738 739 739 740 741 743 744 745 746 746 747 748 749 751 752 753 755 757 758 758 759 760 760 761 762 762 762 762 762 762
751 752 753 753 754 754 754 754 754 755 755 754 754 753 752 751 749 748 747 746 745 744 743 742 740 738 736 734 733 733 732 730 729 727 725 723 721 719 717 717 718 719 720 721 723 724 726 728 730 731 732 734 736 737 738 739 739 740 741 742 743 744 745 746 747 748 748 750 751 753 754 755 757 758 759 760 761 762 762 763 763 763 763 764 764
751 752 752 753 753 754 754 754 754 754 754 754 754 753 752 751 750 749 748 747 746 745 744 743 741 739 737 735 734 733 732 730 729 727 725 723 721 720 718 717 718 719 720 722 723 725 727 728 730 732 733 735 736 738 739 740 740 741 742 743 743 744 746 747 748 749 750 751 752 753 755 756 757 758 760 761 762 763 763 764 765 765 765 765 767
751 752 752 753 753 754 754 754 755 755 755 755 754 753 752 751 750 750 748 748 747 746 745 744 742 740 738 736 735 734 733 731 729 727 725 723 722 721 719 719 719 720 721 722 724 725 727 729 731 733 734 735 737 739 740 741 741 742 743 744 744 745 746 748 748 749 751 753 754 755 756 757 758 759 761 762 763 764 765 765 766 767 767 767 768
751 752 752 753 754 754 754 754 755 755 755 755 754 754 753 752 751 750 749 748 747 746 745 744 742 741 740 737 736 735 734 732 730 727 725 723 722 721 720 720 720 721 722 723 725 726 728 730 732 734 735 737 738 739 741 742 742 743 744 745 745 746 747 749 749 750 751 753 755 756 757 758 759 760 762 763 764 765 766 766 767 768 769 769 770
752 753 753 753 753 754 754 755 755 756 756 755 755 754 753 753 752 751 750 749 748 747 746 744 743 742 741 740 737 735 734 733 731 729 726 724 722 722 721 721 722 722 723 724 726 727 730 731 733 735 737 738 739 740 741 742 743 744 745 745 746 747 748 750 751 751 752 754 755 757 758 759 760 762 763 764 765 766 767 767 768 770 771 770 771
753 753 753 753 753 754 755 755 756 756 756 756 756 755 755 754 753 752 751 750 749 747 746 745 744 743 742 741 739 737 735 734 733 731 729 726 723 722 721 722 722 723 724 725 727 728 730 732 734 737 738 739 740 741 742 743 743 745 746 746 747 748 749 750 751 752 754 755 756 758 759 761 762 763 764 765 767 768 769 769 769 771 772 772 774
753 753 754 754 754 755 755 756 757 757 756 756 756 756 756 755 754 753 751 750 749 748 747 746 745 743 742 741 740 739 738 736 734 732 729 726 723 721 721 722 723 724 725 727 728 730 731 733 736 738 739 740 741 742 743 743 744 745 746 747 748 748 749 751 752 753 754 755 757 759 760 762 764 765 766 767 768 769 770 771 771 773 774 774 776
753 754 755 755 755 756 757 757 758 757 757 757 756 756 755 754 754 753 752 751 749 748 747 746 745 744 742 741 740 739 738 736 734 732 729 726 723 722 722 723 724 725 726 728 729 731 732 735 737 738 740 741 742 743 743 744 745 746 747 748 748 749 750 752 753 754 755 756 758 760 762 763 764 766 767 769 770 771 772 772 773 775 776 777 778
754 755 756 756 756 757 758 758 758 758 757 757 757 756 755 753 752 752 752 751 750 749 747 746 745 743 742 740 739 738 737 735 734 732 730 727 725 724 724 725 725 726 727 729 730 732 734 736 737 739 741 742 742 743 744 744 745 746 747 748 749 750 751 752 754 755 756 758 760 761 763 764 765 766 768 770 771 772 773 774 775 777 778 780 781
756 756 757 757 757 758 758 759 758 758 758 758 757 757 756 754 753 751 750 750 749 748 747 746 744 743 742 740 739 738 737 735 734 732 730 728 727 726 726 726 727 728 729 730 731 733 735 737 738 740 741 742 743 744 744 745 745 746 748 749 749 750 752 753 755 756 757 759 761 762 764 765 766 768 770 771 773 774 775 776 778 779 780 782 783
757 757 758 758 758 758 759 759 759 759 759 759 758 758 757 756 755 753 751 750 748 748 747 746 744 743 741 740 739 738 736 735 734 732 731 730 728 728 728 728 729 730 731 732 733 735 737 739 740 741 742 743 744 744 745 745 746 747 748 749 750 751 753 754 755 757 758 760 762 763 765 766 767 769 771 773 774 775 776 778 779 781 782 784 785
758 758 759 758 758 759 759 760 760 760 760 760 759 759 758 757 756 754 753 752 750 749 747 745 744 742 741 740 739 737 736 735 734 733 732 731 730 730 729 730 731 732 733 734 735 736 738 740 741 742 743 743 744 745 745 746 747 748 749 750 751 752 753 755 756 757 759 760 762 764 765 767 769 770 772 773 775 776 777 779 781 782 784 785 787
759 759 759 759 758 759 760 760 760 761 760 760 760 759 758 757 756 755 754 753 752 750 748 746 744 742 741 740 739 737 736 736 735 734 734 733 732 731 731 732 733 734 735 736 737 738 740 741 742 743 744 744 745 745 746 747 748 749 750 751 751 753 754 755 756 758 759 761 762 764 766 768 770 771 773 774 776 777 779 781 782 783 785 787 788
759 759 758 759 759 759 760 761 761 761 761 761 760 759 759 758 757 756 755 753 752 750 749 746 744 742 741 740 739 738 737 737 736 736 735 734 733 733 733 734 735 736 737 738 739 740 741 742 743 744 744 745 746 746 747 748 749 750 751 752 753 754 755 756 757 759 760 761 763 765 767 769 771 772 774 775 777 778 780 782 784 785 787 788 790
760 759 759 759 760 760 761 761 761 761 761 760 760 760 759 758 758 757 755 753 752 751 749 747 745 743 741 740 740 739 738 737 736 736 735 735 734 734 734 735 736 738 739 740 740 741 742 743 744 745 745 746 746 747 748 748 749 750 751 753 754 755 756 757 759 760 761 762 764 766 768 770 772 773 774 775 777 779 782 783 785 787 788 790 791
760 760 760 760 760 761 761 761 761 761 760 760 760 760 759 759 758 757 755 754 753 751 749 747 745 744 742 741 741 740 739 738 737 737 737 736 736 735 736 736 737 739 740 741 742 743 744 745 745 746 747 747 747 748 749 749 750 751 752 753 755 756 757 758 760 761 762 763 765 767 769 770 772 773 775 776 778 780 782 785 786 788 790 791 793
761 761 761 761 761 761 761 761 761 761 760 760 760 760 760 759 758 757 756 755 753 751 750 748 746 745 744 743 742 741 740 740 740 739 738 737 737 737 737 738 739 740 741 742 743 744 745 746 746 747 748 748 749 749 750 750 751 752 753 755 756 757 759 760 761 762 763 764 765 767 769 770 772 774 775 777 778 780 783 785 787 789 790 792 794
762 762 762 762 761 761 761 762 761 761 761 761 761 761 760 760 759 758 756 755 753 752 750 748 747 745 744 743 743 742 742 741 741 740 739 738 738 738 738 739 740 740 741 743 744 745 746 747 747 748 749 750 750 751 751 752 752 753 754 756 757 758 760 761 762 763 764 765 766 767 769 771 772 774 776 778 779 781 783 785 788 790 792 793 795
763 763 763 762 762 762 762 762 762 762 762 762 762 761 761 760 759 758 757 755 754 752 750 749 748 746 745 744 744 743 742 742 741 741 740 739 739 739 739 740 741 741 742 743 745 746 747 748 748 749 750 751 752 752 753 753 754 754 755 757 758 759 761 762 763 764 765 766 767 768 770 771 773 775 777 778 780 782 784 786 789 791 793 795 796
764 763 763 763 763 763 763 763 763 763 763 763 762 762 761 760 759 758 757 755 754 752 751 749 748 747 746 745 744 743 743 742 742 741 741 740 740 740 740 741 741 742 743 744 745 746 747 748 749 751 752 752 753 754 754 755 755 756 756 758 759 760 762 763 764 765 766 767 768 769 770 772 774 776 777 779 781 783 785 788 790 792 794 796 797
764 764 763 763 763 763 764 764 764 764 764 764 763 762 761 760 760 758 757 756 754 753 751 750 749 748 747 746 745 744 744 743 742 742 741 741 741 741 741 742 742 743 744 745 746 747 748 749 751 752 753 753 754 755 755 756 756 757 757 758 760 761 762 763 764 765 766 767 768 769 771 772 774 776 778 780 782 784 786 788 790 792 794 796 798
765 764 764 764 764 764 765 765 765 765 764 763 762 762 761 761 760 759 758 756 755 753 752 751 750 749 748 747 746 746 745 744 743 742 741 741 741 741 742 742 743 744 745 747 748 748 749 751 752 753 754 755 755 756 756 757 757 758 758 759 761 762 763 764 765 766 767 768 769 770 771 773 775 777 779 781 783 785 787 789 791 793 795 797 799
765 765 765 765 765 765 766 766 766 765 764 763 762 762 762 761 760 759 758 757 755 754 753 752 751 750 749 748 748 747 745 745 744 742 742 741 742 742 743 743 744 746 747 748 749 750 751 752 754 755 755 756 756 757 757 758 758 758 759 760 762 763 764 765 767 768 768 769 770 771 772 774 776 778 780 782 784 786 788 790 792 794 795 797 799
766 766 766 766 766 766 767 767 766 765 764 763 763 762 762 762 761 760 758 757 756 755 754 753 752 751 751 750 749 748 747 746 744 743 743 742 742 743 744 745 746 747 749 750 750 752 753 754 755 756 756 757 757 757 758 758 759 759 760 761 763 764 765 766 768 769 770 770 771 772 773 774 776 779 781 783 785 787 789 791 793 795 796 798 800
767 767 767 767 767 767 768 767 766 765 764 763 763 763 763 762 761 760 759 758 757 756 756 755 754 753 752 752 751 749 748 747 746 745 745 744 744 745 746 746 747 749 750 751 752 754 755 756 756 757 758 758 758 758 759 759 760 760 761 762 764 765 766 768 769 770 771 771 772 773 774 775 777 779 781 783 785 787 789 791 794 795 797 799 801
767 767 767 767 768 768 768 767 766 765 765 764 764 764 763 762 761 760 759 758 758 758 757 757 756 755 754 753 752 751 750 749 748 748 747 747 747 747 748 749 749 750 751 752 754 755 756 757 758 758 758 759 759 759 759 760 760 761 762 763 765 766 767 769 770 771 772 773 774 774 775 777 778 780 782 784 786 788 790 792 794 796 798 800 802
767 767 767 768 768 768 767 767 767 766 766 765 765 764 764 763 762 760 760 759 759 759 759 758 758 757 756 755 754 753 752 751 750 750 749 749 749 750 750 751 752 752 753 754 756 757 758 759 759 759 759 759 759 759 760 760 761 762 763 764 765 767 768 770 771 772 773 774 775 776 777 778 779 781 783 785 787 788 790 792 794 797 798 800 803
767 767 767 767 767 767 767 767 767 767 767 766 765 764 764 763 762 762 761 760 760 760 760 760 759 759 758 757 756 755 754 753 752 751 751 751 751 752 753 754 754 754 755 756 757 758 759 760 760 760 760 760 760 760 760 761 761 762 763 765 766 768 769 771 772 773 774 775 776 777 778 779 780 782 783 785 787 789 790 793 795 797 799 801 803